Погода в Тулугановке

Россия / Астраханская область     46°20′57″N   48°27′27″E
темп.,
°C
ветер,
м/с
пор.,
м/с
влажн.,
%
обл.,
%
осадки,
мм/ч
давл.,
гПа
погр.,
м
24 сентября, пт
пт2401:00+15ссз4779100 0.1 1011319
04:00+15с51078100 0.1 1009337
07:00+17св5972100 0.0 1006382
10:00+20юв2349100 0.0 1006786
13:00+22сз4437100 0.0 10051253
16:00+21зсз994494 0.0 10071225
19:00+14сз7117680 0.0 1009539
22:00+13зсз61178100 0.0 1011578
25 сентября, сб
сб2501:00+13зсз71268100 0.0 1012519
04:00+10з39780 0.0 1012222
07:00+9зсз358120 0.0 1013105
10:00+17сз345276 0.0 1013749
13:00+20зсз3335100 0.0 10111530
16:00+21сз3334100 0.0 10121558
19:00+17сз3545100 0.0 1013120
22:00+15з115492 0.0 101411
26 сентября, вс
вс2601:00+14з51079100 0.1 1014406
04:00+14зюз5978100 0.1 1015518
07:00+12зюз498337 0.0 1015347
10:00+17з78535 0.0 1015954
13:00+20з893886 0.0 10142424
16:00+18з7944100 0.0 10141749
19:00+16з7104883 0.0 1014919
22:00+14зюз71165100 0.0 1012845
27 сентября, пн
пн2701:00+14зюз71485100 1.3 10101042
04:00+15зюз9147966 1.8 1009922
07:00+13з815763 0.5 1010744
10:00+15з9126018 0.5 10111286
13:00+18зсз911375 0.0 10112206
16:00+18зсз9123410 0.0 10122419
19:00+14сз712455 0.0 1014721
22:00+12зсз475211 0.0 1015134
28 сентября, вт
вт2801:00+10з48645 0.0 1015163
04:00+10зсз48745 0.0 1016162
07:00+10зсз367735 0.0 1018117
10:00+15сз3460100 0.0 1019697
13:00+19сз344296 0.1 10192087
16:00+17с344599 0.1 1020862
19:00+15ссв475282 0.0 1022336
22:00+12ссв375599 0.0 1024289